User: anonymous   Login
Location: S�tio Afonso Gruber
(26.1760°S, 49.5250°W)
Time: 12:44:12
(UTC+00:00)
Language:

NOAA 15 - Orbit

View from above orbital plane
View from above orbital plane
View from above satellite
View from above satellite

Ground track
Ground track

The orbit data is extracted from the following two-line orbital elements,

1 25338U 98030A   22342.20041621  .00000172  00000-0  90068-4 0  9997
2 25338  98.6276   9.3285 0010969 146.5580 213.6294 14.26204891278036
Epoch (UTC): 08 December 2022 04:48:35
Eccentricity: 0.0010969
inclination: 98.6276°
perigee height: 796 km
apogee height: 812 km
right ascension of ascending node: 9.3285°
argument of perigee: 146.5580°
revolutions per day: 14.26204891
mean anomaly at epoch: 213.6294°
orbit number at epoch: 27803

The dashed part of the orbit path shows where the satellite is in the earth's shadow,  

DLR